Weather History for KCFV - January, 2013

Change the Weather History Date:

Wednesday, January 9, 2013

  Actual Average Record
Temperature  
Mean Temperature 46 °F -  
Max Temperature 55 °F 41 °F 62 °F (2009)
Min Temperature 37 °F 22 °F 9 °F (1999)
Degree Days  
Heating Degree Days 19    
Moisture  
Dew Point 38 °F    
Average Humidity 77    
Maximum Humidity 100    
Minimum Humidity 48    
Precipitation  
Precipitation 0.01 in - - ()
Sea Level Pressure  
Sea Level Pressure 30.31 in    
Wind  
Wind Speed 5 mph (NE)    
Max Wind Speed 16 mph    
Max Gust Speed 22 mph    
Visibility 6 miles    
Events Fog    
Averages and records for this station are not official NWS values.
T = Trace of Precipitation, MM = Missing Value Source: NWS Daily Summary

Daily Weather History Graph

Daily Weather History Graph

Search for Another Location

Airport or City:

Trip Planner

Search our weather history database for the weather conditions in past years. The results will help you decide how hot, cold, wet, or windy it might be!

Date:

Astronomy

Jan. 09, 2013 Rise Set
Actual Time 7:36 AM CST 5:23 PM CST
Civil Twilight 7:07 AM CST 5:52 PM CST
Nautical Twilight 6:35 AM CST 6:24 PM CST
Astronomical Twilight 6:03 AM CST 6:55 PM CST
Moon 5:16 AM CST (1/9) 3:26 PM CST (1/9)
Length of Visible Light 10h 44m
Length of Day
9h 47m
Waning Crescent, 6% of the Moon is Illuminated
Jan 9
Waning Crescent
Jan 11
New
Jan 18
First Quarter
Jan 26
Full
Feb 3
Last Quarter

Hourly Weather History & Observations

Time (CST) Temp. Windchill Dew Point Humidity Pressure Visibility Wind Dir Wind Speed Gust Speed Precip Events Conditions
12:20 AM 41.0 °F - 39.2 °F 93% 30.22 in 0.2 mi Calm Calm - N/A Fog Fog
1:52 AM 42.1 °F 40.2 °F 41.0 °F 96% 30.25 in 0.2 mi NE 3.5 mph - N/A Fog Fog
2:52 AM 42.1 °F - 41.0 °F 96% 30.26 in 0.2 mi Calm Calm - N/A Fog Fog
3:52 AM 43.0 °F - 42.1 °F 97% 30.27 in 0.2 mi Calm Calm - N/A Fog Fog
4:52 AM 42.1 °F 40.2 °F 41.0 °F 96% 30.27 in 0.2 mi NNE 3.5 mph - N/A Fog Fog
5:52 AM 39.9 °F 35.1 °F 39.0 °F 97% 30.27 in 0.2 mi NNE 6.9 mph - N/A Fog Fog
6:52 AM 37.9 °F 34.4 °F 37.9 °F 100% 30.31 in 0.2 mi NE 4.6 mph - 0.01 in Fog Fog
7:52 AM 37.0 °F 34.5 °F 37.0 °F 100% 30.35 in 0.2 mi NE 3.5 mph - N/A Fog Fog
8:48 AM 37.4 °F 32.1 °F 37.4 °F 100% 30.36 in 1.0 mi North 6.9 mph - N/A   Overcast
8:52 AM 37.0 °F 33.3 °F 37.0 °F 100% 30.38 in 1.2 mi North 4.6 mph - N/A   Overcast
8:56 AM 37.4 °F 32.8 °F 37.4 °F 100% 30.37 in 3.0 mi North 5.8 mph - N/A   Overcast
9:04 AM 37.4 °F 34.9 °F 37.4 °F 100% 30.37 in 6.0 mi NNE 3.5 mph - N/A   Overcast
9:52 AM 41.0 °F 35.8 °F 37.9 °F 89% 30.39 in 10.0 mi NE 8.1 mph - N/A   Scattered Clouds
11:52 AM 48.0 °F - 39.0 °F 71% 30.38 in 10.0 mi NE 6.9 mph - N/A   Mostly Cloudy
12:52 PM 52.0 °F - 37.9 °F 59% 30.34 in 10.0 mi NE 15.0 mph - N/A   Mostly Cloudy
1:52 PM 54.0 °F - 37.0 °F 53% 30.33 in 10.0 mi NE 10.4 mph - N/A   Overcast
2:52 PM 55.9 °F - 37.0 °F 49% 30.32 in 10.0 mi ENE 12.7 mph - N/A   Overcast
3:52 PM 55.9 °F - 37.0 °F 49% 30.32 in 10.0 mi NE 8.1 mph - N/A   Clear
4:52 PM 53.1 °F - 37.0 °F 55% 30.32 in 10.0 mi NE 6.9 mph - N/A   Clear
5:52 PM 52.0 °F - 37.0 °F 57% 30.32 in 10.0 mi NE 9.2 mph - N/A   Clear
7:52 PM 50.0 °F - 37.0 °F 61% 30.31 in 10.0 mi NE 10.4 mph - N/A   Clear
8:52 PM 50.0 °F - 36.0 °F 59% 30.29 in 10.0 mi NE 9.2 mph - N/A   Scattered Clouds
9:52 PM 52.0 °F - 35.1 °F 53% 30.26 in 10.0 mi ENE 13.8 mph - N/A   Overcast
10:52 PM 53.1 °F - 34.0 °F 48% 30.25 in 10.0 mi ENE 16.1 mph 21.9 mph N/A   Overcast
11:52 PM 52.0 °F - 35.1 °F 53% 30.24 in 10.0 mi East 9.2 mph - N/A   Overcast